DECAYED

NOAA 16 DEB, 41075 (Decayed)

Orbit data source: Space-Track

NOAA 16 DEB, 41075 was space debris in LEO originally from a launch on Thu, 21 Sep 2000 UTC launched from the Air Force Western Test Range (AFWTR). Debris objects in space refer to the collection of defunct objects orbiting the Earth. Examples of debris include non-operational satellites, rocket bodies, and fragments generated from explosions, collisions, or faulty payload assembly.

Not visible in the next 10 days
Identifier
41075, 2000-055AJ
Orbit
Decayed
Country
Flag of USUS
Related business
Manufacturer
Unknown
Mission
Decayed spacecraft
Bus & Motor
Unknown
Mass
Unknown
Launch date (UTC)
2000-09-21 (26 years ago)
Launch vehicle
Unknown
Launch site
Air Force Western Test Range (AFWTR)
Object type
Payload
Rocket body
Debris
Shape & HBR
Unknown shape, 0.1 m
Radar Cross Section
Medium (>0.1 m² and <1 m²)

Expand to show TLE details & history
Last TLE update: 6 months ago

TLE from 6 months ago
0 NOAA 16 DEB
1 41075U 00055AJ  26077.23164210  .07514028  34407-5  36547-2 0  9995
2 41075  99.0408 255.6628 0011215 327.5087  32.5506 16.20995540552076
Epoch: 2026-03-18T05:33Z
TLE epoch observation values (Epoch: 2026-03-18T05:33:33.877Z)
Latitude
0.00004°
Longitude
-3.52674°
Altitude
213.789 km
Speed
7.782 km/s
True Right ascension
17h 02m 39s
True Declination
0° 00' 00"
Sunlit
Object was in daylight at epoch
Visualization orbit readout
Latitude
Unknown
Longitude
Unknown
Altitude
Unknown
Speed
Unknown
Apparent Right ascension
Unknown
Apparent Declination
Unknown
Sunlit
N/A
Visualization observer readout
Local Sidereal Time
10:10:55
Azimuth
Unknown
Elevation
Unknown
Doppler factor
Unknown
Orbital elements
Apogee altitude
221.157 km
Perigee altitude
206.371 km
Semi-major axis
6,591.901 km
Eccentricity
0.00112
Inclination
99.0408°
RAAN
255.6628°
Arg. of periapsis
327.5087°
True anomaly
32.61983°
Mean anomaly
32.5506°
Eccentric anomaly
32.58521°
Mean motion
4.05534 °/min
Orbital period
88.77 mins
BSTAR
0.0036547
Loading maneuver chart data...
Computing Atmospheric mass density...
Loading historical data...
Loading historical data...
Loading historical data...
Loading historical data...
Loading historical data...
Loading historical data...
Loading historical data...

Documentation

Showing up to 5 results
|